| time (UTC) | temp F | wind direction | speed MPH | gust MPH | rain 1hr in | rain 24hr in | rain mn in | humidity % | barometer mb |
| 20260506221631 | 57 | 250 | 6.0 | 0.0 | 0.00 | 0.00 | 0.00 | 85 | 1100.1 |
| 20260506221504 | 58 | 358 | 0.0 | 0.0 | 0.00 | 0.00 | 0.00 | 88 | 1008.6 |
| 20260506220124 | 58 | 234 | 6.0 | 0.0 | 0.00 | 0.00 | 0.00 | 83 | 1100.1 |
| 20260506220005 | 58 | 0 | 0.0 | 0.0 | 0.00 | 0.00 | 0.00 | 87 | 1008.5 |
| 20260506215505 | 58 | 0 | 0.0 | 0.0 | 0.00 | 0.00 | 0.00 | 87 | 1008.4 |
| 20260506214612 | 58 | 231 | 6.0 | 0.0 | 0.00 | 0.00 | 0.00 | 83 | 1100.1 |
| 20260506213505 | 58 | 0 | 0.0 | 0.0 | 0.00 | 0.00 | 0.00 | 87 | 1008.6 |
| 20260506213112 | 58 | 215 | 6.0 | 0.0 | 0.00 | 0.00 | 0.00 | 83 | 1100.1 |
| 20260506212005 | 58 | 0 | 0.0 | 0.0 | 0.00 | 0.00 | 0.00 | 87 | 1009.0 |
| 20260506211616 | 58 | 227 | 6.0 | 0.0 | 0.00 | 0.00 | 0.00 | 83 | 1100.1 |
| 20260506211505 | 58 | 0 | 0.0 | 0.0 | 0.00 | 0.00 | 0.00 | 87 | 1009.0 |
| 20260506210504 | 58 | 0 | 0.0 | 0.0 | 0.00 | 0.00 | 0.00 | 86 | 1009.1 |
| 20260506210121 | 58 | 252 | 7.0 | 0.0 | 0.00 | 0.00 | 0.00 | 82 | 1100.1 |
| 20260506204616 | 58 | 257 | 7.0 | 0.0 | 0.00 | 0.00 | 0.00 | 81 | 1100.1 |
| 20260506204005 | 58 | 0 | 0.0 | 0.0 | 0.00 | 0.00 | 0.00 | 84 | 1009.1 |
| 20260506203145 | 58 | 231 | 6.0 | 0.0 | 0.00 | 0.00 | 0.00 | 81 | 1100.1 |
| 20260506202005 | 58 | 0 | 0.0 | 0.0 | 0.00 | 0.00 | 0.00 | 84 | 1009.4 |
| 20260506201613 | 58 | 236 | 6.0 | 0.0 | 0.00 | 0.00 | 0.00 | 80 | 1100.1 |
| 20260506201005 | 58 | 0 | 0.0 | 0.0 | 0.00 | 0.00 | 0.00 | 84 | 1009.5 |
| 20260506200123 | 58 | 262 | 7.0 | 0.0 | 0.00 | 0.00 | 0.00 | 79 | 1100.1 |
| 20260506200005 | 59 | 0 | 0.0 | 0.0 | 0.00 | 0.00 | 0.00 | 83 | 1009.6 |
| 20260506195505 | 59 | 0 | 0.0 | 0.0 | 0.00 | 0.00 | 0.00 | 82 | 1009.7 |
| 20260506195005 | 59 | 0 | 0.0 | 0.0 | 0.00 | 0.00 | 0.00 | 82 | 1009.6 |
| 20260506194621 | 59 | 217 | 7.0 | 0.0 | 0.00 | 0.00 | 0.00 | 79 | 1100.1 |
| 20260506194004 | 59 | 0 | 0.0 | 0.0 | 0.00 | 0.00 | 0.00 | 82 | 1009.7 |
| 20260506193113 | 59 | 230 | 8.0 | 0.0 | 0.00 | 0.00 | 0.00 | 79 | 1100.1 |
| 20260506192504 | 59 | 0 | 0.0 | 0.0 | 0.00 | 0.00 | 0.00 | 82 | 1009.8 |
| 20260506192005 | 59 | 0 | 0.0 | 0.0 | 0.00 | 0.00 | 0.00 | 82 | 1009.9 |
| 20260506191612 | 59 | 263 | 7.0 | 0.0 | 0.00 | 0.00 | 0.00 | 78 | 1100.1 |
| 20260506191504 | 60 | 0 | 0.0 | 0.0 | 0.00 | 0.00 | 0.00 | 82 | 1009.9 |
| 20260506191005 | 60 | 0 | 0.0 | 0.0 | 0.00 | 0.00 | 0.00 | 81 | 1009.9 |
| 20260506190505 | 60 | 0 | 0.0 | 0.0 | 0.00 | 0.00 | 0.00 | 81 | 1009.9 |
| 20260506190110 | 60 | 249 | 8.0 | 0.0 | 0.00 | 0.00 | 0.00 | 77 | 1100.1 |
| 20260506190005 | 60 | 0 | 0.0 | 0.0 | 0.00 | 0.00 | 0.00 | 81 | 1009.9 |
| 20260506185505 | 60 | 0 | 0.0 | 0.0 | 0.00 | 0.00 | 0.00 | 81 | 1009.9 |
| 20260506185004 | 60 | 0 | 0.0 | 0.0 | 0.00 | 0.00 | 0.00 | 81 | 1010.0 |
| 20260506184516 | 60 | 192 | 8.0 | 0.0 | 0.00 | 0.00 | 0.00 | 77 | 1100.1 |
| 20260506184505 | 60 | 0 | 0.0 | 0.0 | 0.00 | 0.00 | 0.00 | 81 | 1010.1 |
| 20260506183115 | 60 | 194 | 7.0 | 0.0 | 0.00 | 0.00 | 0.00 | 78 | 1100.1 |
| 20260506182506 | 60 | 0 | 0.0 | 0.0 | 0.00 | 0.00 | 0.00 | 80 | 1010.6 |
| 20260506182006 | 61 | 0 | 0.0 | 0.0 | 0.00 | 0.00 | 0.00 | 80 | 1010.6 |
| 20260506181621 | 60 | 189 | 7.0 | 0.0 | 0.00 | 0.00 | 0.00 | 77 | 1100.1 |
| 20260506181506 | 61 | 0 | 0.0 | 0.0 | 0.00 | 0.00 | 0.00 | 79 | 1010.7 |
| 20260506181006 | 62 | 0 | 0.0 | 0.0 | 0.00 | 0.00 | 0.00 | 78 | 1010.8 |
| 20260506180506 | 62 | 0 | 0.0 | 0.0 | 0.00 | 0.00 | 0.00 | 77 | 1010.8 |
| 20260506180116 | 62 | 172 | 7.0 | 0.0 | 0.00 | 0.00 | 0.00 | 74 | 1100.1 |
| 20260506180006 | 62 | 0 | 0.0 | 0.0 | 0.00 | 0.00 | 0.00 | 77 | 1010.9 |
| 20260506175006 | 63 | 0 | 0.0 | 0.0 | 0.00 | 0.00 | 0.00 | 77 | 1011.2 |
| 20260506174614 | 62 | 245 | 10.0 | 0.0 | 0.00 | 0.00 | 0.00 | 74 | 1100.1 |
| 20260506173506 | 63 | 0 | 0.0 | 0.0 | 0.00 | 0.00 | 0.00 | 77 | 1011.1 |
| 20260506173127 | 63 | 231 | 9.0 | 0.0 | 0.00 | 0.00 | 0.00 | 74 | 1100.1 |
| 20260506173006 | 64 | 0 | 0.0 | 0.0 | 0.00 | 0.00 | 0.00 | 75 | 1011.0 |
| 20260506172506 | 63 | 0 | 0.0 | 0.0 | 0.00 | 0.00 | 0.00 | 77 | 1011.1 |
| 20260506171626 | 62 | 257 | 8.0 | 0.0 | 0.00 | 0.00 | 0.00 | 76 | 1100.1 |
| 20260506170507 | 61 | 0 | 0.0 | 0.0 | 0.00 | 0.00 | 0.00 | 78 | 1011.5 |
| 20260506170133 | 61 | 227 | 8.0 | 0.0 | 0.00 | 0.00 | 0.00 | 76 | 1100.1 |
| 20260506164637 | 62 | 236 | 7.0 | 0.0 | 0.00 | 0.00 | 0.00 | 75 | 1100.1 |
| 20260506164505 | 63 | 0 | 0.0 | 0.0 | 0.00 | 0.00 | 0.00 | 77 | 1011.6 |
| 20260506164006 | 62 | 0 | 0.0 | 0.0 | 0.00 | 0.00 | 0.00 | 78 | 1011.7 |
| 20260506163145 | 62 | 228 | 6.0 | 0.0 | 0.00 | 0.00 | 0.00 | 75 | 1100.1 |
| 20260506163006 | 63 | 0 | 0.0 | 0.0 | 0.00 | 0.00 | 0.00 | 77 | 1011.9 |
| 20260506161628 | 62 | 209 | 6.0 | 0.0 | 0.00 | 0.00 | 0.00 | 75 | 1100.1 |
| 20260506160506 | 63 | 0 | 0.0 | 0.0 | 0.00 | 0.00 | 0.00 | 77 | 1012.2 |
| 20260506160006 | 63 | 0 | 0.0 | 0.0 | 0.00 | 0.00 | 0.00 | 75 | 1012.2 |
| 20260506160001 | 62 | 237 | 8.0 | 0.0 | 0.00 | 0.00 | 0.00 | 75 | 1100.1 |
| 20260506154505 | 62 | 233 | 8.0 | 0.0 | 0.00 | 0.00 | 0.00 | 75 | 1100.1 |
| 20260506153129 | 61 | 228 | 9.0 | 0.0 | 0.00 | 0.00 | 0.00 | 75 | 1100.1 |
| 20260506153006 | 62 | 0 | 0.0 | 0.0 | 0.00 | 0.00 | 0.00 | 77 | 1012.6 |
| 20260506152506 | 62 | 0 | 0.0 | 0.0 | 0.00 | 0.00 | 0.00 | 78 | 1012.5 |
| 20260506151514 | 61 | 192 | 7.0 | 0.0 | 0.00 | 0.00 | 0.00 | 77 | 1100.1 |
| 20260506150007 | 60 | 256 | 8.0 | 0.0 | 0.00 | 0.00 | 0.00 | 77 | 1100.1 |
| 20260506145506 | 60 | 0 | 0.0 | 0.0 | 0.00 | 0.00 | 0.00 | 80 | 1012.6 |
| 20260506145006 | 61 | 0 | 0.0 | 0.0 | 0.00 | 0.00 | 0.00 | 79 | 1012.5 |
| 20260506144506 | 60 | 213 | 8.0 | 0.0 | 0.00 | 0.00 | 0.00 | 77 | 1100.1 |
| 20260506143113 | 60 | 236 | 8.0 | 0.0 | 0.00 | 0.00 | 0.00 | 77 | 1100.1 |
| 20260506143006 | 61 | 0 | 0.0 | 0.0 | 0.00 | 0.00 | 0.00 | 80 | 1012.3 |
| 20260506142506 | 61 | 0 | 0.0 | 0.0 | 0.00 | 0.00 | 0.00 | 79 | 1012.2 |
| 20260506141624 | 62 | 224 | 7.0 | 0.0 | 0.00 | 0.00 | 0.00 | 74 | 1100.1 |
| 20260506141506 | 62 | 0 | 0.0 | 0.0 | 0.00 | 0.00 | 0.00 | 77 | 1012.5 |
| 20260506140506 | 62 | 0 | 0.0 | 0.0 | 0.00 | 0.00 | 0.00 | 79 | 1012.4 |
| 20260506140136 | 62 | 148 | 6.0 | 0.0 | 0.00 | 0.00 | 0.00 | 75 | 1100.1 |
| 20260506135007 | 61 | 0 | 0.0 | 0.0 | 0.00 | 0.00 | 0.00 | 80 | 1012.7 |
| 20260506134631 | 62 | 220 | 6.0 | 0.0 | 0.00 | 0.00 | 0.00 | 75 | 1100.1 |
| 20260506133507 | 61 | 0 | 0.0 | 0.0 | 0.00 | 0.00 | 0.00 | 81 | 1012.7 |
| 20260506133011 | 61 | 225 | 8.0 | 0.0 | 0.00 | 0.00 | 0.00 | 77 | 1100.1 |
| 20260506133006 | 61 | 0 | 0.0 | 0.0 | 0.00 | 0.00 | 0.00 | 82 | 1012.6 |
| 20260506132505 | 60 | 0 | 0.0 | 0.0 | 0.00 | 0.00 | 0.00 | 82 | 1012.6 |
| 20260506131609 | 60 | 230 | 6.0 | 0.0 | 0.00 | 0.00 | 0.00 | 77 | 1100.1 |
| 20260506130007 | 60 | 0 | 0.0 | 0.0 | 0.00 | 0.00 | 0.00 | 81 | 1012.4 |
| 20260506125007 | 60 | 0 | 0.0 | 0.0 | 0.00 | 0.00 | 0.00 | 83 | 1012.6 |
| 20260506124622 | 60 | 236 | 5.0 | 0.0 | 0.00 | 0.00 | 0.00 | 78 | 1100.1 |
| 20260506124006 | 59 | 0 | 0.0 | 0.0 | 0.00 | 0.00 | 0.00 | 83 | 1012.7 |
| 20260506123125 | 59 | 225 | 6.0 | 0.0 | 0.00 | 0.00 | 0.00 | 80 | 1100.1 |
| 20260506122506 | 59 | 0 | 0.0 | 0.0 | 0.00 | 0.00 | 0.00 | 84 | 1012.7 |
| 20260506121622 | 59 | 236 | 5.0 | 0.0 | 0.00 | 0.00 | 0.00 | 80 | 1100.1 |
| 20260506120131 | 59 | 244 | 6.0 | 0.0 | 0.00 | 0.00 | 0.00 | 82 | 1100.1 |
| 20260506114634 | 58 | 227 | 4.0 | 0.0 | 0.00 | 0.00 | 0.00 | 83 | 1100.1 |
| 20260506114506 | 57 | 0 | 0.0 | 0.0 | 0.00 | 0.00 | 0.00 | 88 | 1013.0 |
| 20260506114006 | 57 | 0 | 0.0 | 0.0 | 0.00 | 0.00 | 0.00 | 88 | 1013.0 |
| 20260506113506 | 57 | 0 | 0.0 | 0.0 | 0.00 | 0.00 | 0.00 | 88 | 1013.1 |
| 20260506113008 | 57 | 238 | 5.0 | 0.0 | 0.00 | 0.00 | 0.00 | 83 | 1100.1 |
| 20260506112006 | 57 | 0 | 0.0 | 0.0 | 0.00 | 0.00 | 0.00 | 90 | 1012.9 |
| 20260506111526 | 57 | 225 | 4.0 | 0.0 | 0.00 | 0.00 | 0.00 | 84 | 1100.1 |
| 20260506111007 | 56 | 0 | 0.0 | 0.0 | 0.00 | 0.00 | 0.00 | 91 | 1012.9 |
| 20260506110506 | 55 | 0 | 0.0 | 0.0 | 0.00 | 0.00 | 0.00 | 91 | 1013.0 |
| 20260506110108 | 56 | 189 | 6.0 | 0.0 | 0.00 | 0.00 | 0.00 | 86 | 1100.1 |
| 20260506105006 | 55 | 0 | 0.0 | 0.0 | 0.00 | 0.00 | 0.00 | 91 | 1013.2 |
| 20260506104612 | 55 | 216 | 4.0 | 0.0 | 0.00 | 0.00 | 0.00 | 87 | 1100.1 |
| 20260506104505 | 55 | 0 | 0.0 | 0.0 | 0.00 | 0.00 | 0.00 | 91 | 1013.1 |
| 20260506104006 | 55 | 0 | 0.0 | 0.0 | 0.00 | 0.00 | 0.00 | 91 | 1013.1 |
| 20260506103017 | 54 | 190 | 5.0 | 0.0 | 0.00 | 0.00 | 0.00 | 87 | 1100.1 |
| 20260506102006 | 55 | 0 | 0.0 | 0.0 | 0.00 | 0.00 | 0.00 | 91 | 1012.9 |
| 20260506101638 | 54 | 217 | 5.0 | 0.0 | 0.00 | 0.00 | 0.00 | 87 | 1100.1 |
| 20260506101506 | 55 | 0 | 0.0 | 0.0 | 0.00 | 0.00 | 0.00 | 91 | 1012.9 |
| 20260506100506 | 55 | 0 | 0.0 | 0.0 | 0.00 | 0.00 | 0.00 | 91 | 1012.9 |
| 20260506100118 | 54 | 228 | 4.0 | 0.0 | 0.00 | 0.00 | 0.00 | 87 | 1100.1 |
| 20260506095506 | 55 | 0 | 0.0 | 0.0 | 0.00 | 0.00 | 0.00 | 91 | 1012.9 |
| 20260506095006 | 55 | 0 | 0.0 | 0.0 | 0.00 | 0.00 | 0.00 | 90 | 1012.9 |
| 20260506094631 | 55 | 267 | 5.0 | 0.0 | 0.00 | 0.00 | 0.00 | 87 | 1100.1 |
| 20260506094506 | 55 | 0 | 0.0 | 0.0 | 0.00 | 0.00 | 0.00 | 90 | 1013.0 |
| 20260506093506 | 55 | 0 | 0.0 | 0.0 | 0.00 | 0.00 | 0.00 | 90 | 1013.0 |
| 20260506093133 | 55 | 190 | 4.0 | 0.0 | 0.00 | 0.00 | 0.00 | 86 | 1100.1 |
| 20260506093007 | 55 | 0 | 0.0 | 0.0 | 0.00 | 0.00 | 0.00 | 90 | 1013.0 |
| 20260506092006 | 56 | 0 | 0.0 | 0.0 | 0.00 | 0.00 | 0.00 | 91 | 1013.1 |
| 20260506091555 | 56 | 229 | 5.0 | 0.0 | 0.00 | 0.00 | 0.00 | 86 | 1100.1 |
| 20260506091505 | 56 | 0 | 0.0 | 0.0 | 0.00 | 0.00 | 0.00 | 91 | 1013.1 |
| 20260506090506 | 56 | 0 | 0.0 | 0.0 | 0.00 | 0.00 | 0.00 | 91 | 1013.0 |
| 20260506090144 | 56 | 203 | 6.0 | 0.0 | 0.00 | 0.00 | 0.00 | 86 | 1100.1 |
| 20260506085006 | 56 | 0 | 0.0 | 0.0 | 0.00 | 0.00 | 0.00 | 91 | 1013.0 |
| 20260506084510 | 56 | 229 | 6.0 | 0.0 | 0.00 | 0.00 | 0.00 | 87 | 1100.1 |
| 20260506084006 | 56 | 0 | 0.0 | 0.0 | 0.00 | 0.00 | 0.00 | 92 | 1013.1 |
| 20260506083015 | 56 | 238 | 6.0 | 0.0 | 0.00 | 0.00 | 0.00 | 87 | 1100.1 |
| 20260506083006 | 56 | 0 | 0.0 | 0.0 | 0.00 | 0.00 | 0.00 | 92 | 1013.1 |
| 20260506082006 | 55 | 0 | 0.0 | 0.0 | 0.00 | 0.00 | 0.00 | 92 | 1013.1 |
| 20260506081503 | 55 | 227 | 5.0 | 0.0 | 0.00 | 0.00 | 0.00 | 87 | 1100.1 |
| 20260506081007 | 55 | 0 | 0.0 | 0.0 | 0.00 | 0.00 | 0.00 | 91 | 1013.2 |
| 20260506080506 | 55 | 0 | 0.0 | 0.0 | 0.00 | 0.00 | 0.00 | 91 | 1013.2 |
| 20260506080144 | 55 | 229 | 6.0 | 0.0 | 0.00 | 0.00 | 0.00 | 87 | 1100.1 |
| 20260506073137 | 54 | 228 | 4.0 | 0.0 | 0.00 | 0.00 | 0.00 | 87 | 1100.1 |
| 20260506072006 | 54 | 0 | 0.0 | 0.0 | 0.00 | 0.00 | 0.00 | 91 | 1013.1 |
| 20260506071626 | 54 | 216 | 5.0 | 0.0 | 0.00 | 0.00 | 0.00 | 87 | 1100.1 |
| 20260506071505 | 54 | 0 | 0.0 | 0.0 | 0.00 | 0.00 | 0.00 | 91 | 1013.1 |
| 20260506070506 | 54 | 0 | 0.0 | 0.0 | 0.00 | 0.00 | 0.00 | 91 | 1013.1 |
| 20260506070133 | 54 | 251 | 5.0 | 0.0 | 0.00 | 0.00 | 0.00 | 87 | 1100.1 |
| 20260506061634 | 54 | 236 | 3.0 | 0.0 | 0.00 | 0.00 | 0.00 | 86 | 1100.1 |
| 20260506061505 | 54 | 0 | 0.0 | 0.0 | 0.00 | 0.00 | 0.00 | 90 | 1013.0 |
| 20260506061006 | 54 | 0 | 0.0 | 0.0 | 0.00 | 0.00 | 0.00 | 90 | 1013.1 |
| 20260506060129 | 54 | 236 | 5.0 | 0.0 | 0.00 | 0.00 | 0.00 | 86 | 1100.1 |
| 20260506051006 | 54 | 0 | 0.0 | 0.0 | 0.00 | 0.00 | 0.00 | 90 | 1013.6 |
| 20260506050506 | 54 | 0 | 0.0 | 0.0 | 0.00 | 0.00 | 0.00 | 90 | 1013.6 |
| 20260506050119 | 54 | 236 | 4.0 | 0.0 | 0.00 | 0.00 | 0.00 | 86 | 1100.1 |
| 20260506045006 | 54 | 0 | 0.0 | 0.0 | 0.00 | 0.00 | 0.00 | 89 | 1013.6 |
| 20260506044618 | 54 | 236 | 3.0 | 0.0 | 0.00 | 0.00 | 0.00 | 86 | 1100.1 |
| 20260506044006 | 54 | 0 | 0.0 | 0.0 | 0.00 | 0.00 | 0.00 | 89 | 1013.7 |
| 20260506043505 | 54 | 0 | 0.0 | 0.0 | 0.00 | 0.00 | 0.00 | 89 | 1013.6 |
| 20260506043113 | 54 | 234 | 4.0 | 0.0 | 0.00 | 0.00 | 0.00 | 85 | 1100.1 |
| 20260506043006 | 54 | 0 | 0.0 | 0.0 | 0.00 | 0.00 | 0.00 | 88 | 1013.6 |
| 20260506042505 | 55 | 0 | 0.0 | 0.0 | 0.00 | 0.00 | 0.00 | 88 | 1013.5 |
| 20260506041606 | 54 | 234 | 4.0 | 0.0 | 0.00 | 0.00 | 0.00 | 84 | 1100.1 |
| 20260506040506 | 55 | 0 | 0.0 | 0.0 | 0.00 | 0.00 | 0.00 | 88 | 1013.6 |
| 20260506040132 | 55 | 152 | 5.0 | 0.0 | 0.00 | 0.00 | 0.00 | 84 | 1100.1 |
| 20260506035006 | 55 | 0 | 0.0 | 0.0 | 0.00 | 0.00 | 0.00 | 87 | 1013.6 |
| 20260506034623 | 55 | 212 | 4.0 | 0.0 | 0.00 | 0.00 | 0.00 | 83 | 1100.1 |
| 20260506033109 | 55 | 188 | 5.0 | 0.0 | 0.00 | 0.00 | 0.00 | 83 | 1100.1 |
| 20260506032005 | 55 | 0 | 0.0 | 0.0 | 0.00 | 0.00 | 0.00 | 87 | 1013.4 |
| 20260506031510 | 55 | 262 | 6.0 | 0.0 | 0.00 | 0.00 | 0.00 | 82 | 1100.1 |
| 20260506031506 | 55 | 0 | 0.0 | 0.0 | 0.00 | 0.00 | 0.00 | 87 | 1013.4 |
| 20260506030505 | 55 | 0 | 0.0 | 0.0 | 0.00 | 0.00 | 0.00 | 87 | 1013.4 |
| 20260506030104 | 55 | 225 | 5.0 | 0.0 | 0.00 | 0.00 | 0.00 | 82 | 1100.1 |
| 20260506024610 | 54 | 220 | 5.0 | 0.0 | 0.00 | 0.00 | 0.00 | 82 | 1100.1 |
| 20260506024506 | 54 | 0 | 0.0 | 0.0 | 0.00 | 0.00 | 0.00 | 86 | 1013.3 |
| 20260506024006 | 54 | 0 | 0.0 | 0.0 | 0.00 | 0.00 | 0.00 | 85 | 1013.2 |
| 20260506023126 | 54 | 267 | 3.0 | 0.0 | 0.00 | 0.00 | 0.00 | 81 | 1100.1 |
| 20260506023006 | 54 | 0 | 0.0 | 0.0 | 0.00 | 0.00 | 0.00 | 85 | 1013.3 |
| 20260506022506 | 54 | 0 | 0.0 | 0.0 | 0.00 | 0.00 | 0.00 | 84 | 1013.3 |
| 20260506022006 | 54 | 0 | 0.0 | 0.0 | 0.00 | 0.00 | 0.00 | 84 | 1013.3 |
| 20260506021625 | 54 | 243 | 4.0 | 0.0 | 0.00 | 0.00 | 0.00 | 80 | 1100.1 |
| 20260506020006 | 54 | 0 | 0.0 | 0.0 | 0.00 | 0.00 | 0.00 | 83 | 1013.3 |
| 20260506020002 | 54 | 237 | 5.0 | 0.0 | 0.00 | 0.00 | 0.00 | 80 | 1100.1 |
| 20260506014632 | 54 | 229 | 4.0 | 0.0 | 0.00 | 0.00 | 0.00 | 79 | 1100.1 |
| 20260506013505 | 54 | 0 | 0.0 | 0.0 | 0.00 | 0.00 | 0.00 | 83 | 1013.2 |
| 20260506013138 | 54 | 209 | 5.0 | 0.0 | 0.00 | 0.00 | 0.00 | 78 | 1100.1 |
| 20260506013006 | 54 | 0 | 0.0 | 0.0 | 0.00 | 0.00 | 0.00 | 83 | 1013.2 |
| 20260506012007 | 54 | 0 | 0.0 | 0.0 | 0.00 | 0.00 | 0.00 | 83 | 1013.2 |
| 20260506011640 | 54 | 252 | 4.0 | 0.0 | 0.00 | 0.00 | 0.00 | 79 | 1100.1 |
| 20260506011507 | 54 | 0 | 0.0 | 0.0 | 0.00 | 0.00 | 0.00 | 83 | 1013.2 |
| 20260506010505 | 54 | 0 | 0.0 | 0.0 | 0.00 | 0.00 | 0.00 | 84 | 1013.0 |
| 20260506010139 | 54 | 252 | 4.0 | 0.0 | 0.00 | 0.00 | 0.00 | 80 | 1100.1 |
| 20260506005505 | 54 | 0 | 0.0 | 0.0 | 0.00 | 0.00 | 0.00 | 84 | 1013.2 |
| 20260506005006 | 54 | 0 | 0.0 | 0.0 | 0.00 | 0.00 | 0.00 | 84 | 1013.1 |
| 20260506004642 | 54 | 252 | 4.0 | 0.0 | 0.00 | 0.00 | 0.00 | 80 | 1100.1 |
| 20260506004506 | 54 | 0 | 0.0 | 0.0 | 0.00 | 0.00 | 0.00 | 84 | 1013.0 |
| 20260506004006 | 54 | 0 | 0.0 | 0.0 | 0.00 | 0.00 | 0.00 | 84 | 1012.9 |
| 20260506003506 | 54 | 0 | 0.0 | 0.0 | 0.00 | 0.00 | 0.00 | 84 | 1012.6 |
| 20260506003138 | 54 | 208 | 5.0 | 0.0 | 0.00 | 0.00 | 0.00 | 80 | 1100.1 |
| 20260506003007 | 54 | 0 | 0.0 | 0.0 | 0.00 | 0.00 | 0.00 | 84 | 1012.4 |
| 20260506002506 | 54 | 0 | 0.0 | 0.0 | 0.00 | 0.00 | 0.00 | 84 | 1012.2 |
| 20260506001640 | 54 | 234 | 5.0 | 0.0 | 0.00 | 0.00 | 0.00 | 80 | 1100.1 |
| 20260506000506 | 55 | 0 | 0.0 | 0.0 | 0.00 | 0.00 | 0.00 | 83 | 1011.8 |
| 20260506000010 | 55 | 186 | 5.0 | 0.0 | 0.00 | 0.00 | 0.00 | 79 | 1100.1 |
| 20260505235505 | 55 | 0 | 0.0 | 0.0 | 0.00 | 0.00 | 0.00 | 83 | 1011.6 |
| 20260505235006 | 55 | 0 | 0.0 | 0.0 | 0.00 | 0.00 | 0.00 | 83 | 1011.5 |
| 20260505234507 | 55 | 253 | 6.0 | 0.0 | 0.00 | 0.00 | 0.00 | 79 | 1100.1 |
| 20260505233101 | 55 | 202 | 5.0 | 0.0 | 0.00 | 0.00 | 0.00 | 79 | 1100.1 |
| 20260505231612 | 55 | 182 | 5.0 | 0.0 | 0.00 | 0.00 | 0.00 | 79 | 1100.1 |
| 20260505231505 | 56 | 0 | 0.0 | 0.0 | 0.00 | 0.00 | 0.00 | 83 | 1011.6 |
| 20260505231005 | 56 | 0 | 0.0 | 0.0 | 0.00 | 0.00 | 0.00 | 83 | 1011.5 |
| 20260505230123 | 55 | 257 | 6.0 | 0.0 | 0.00 | 0.00 | 0.00 | 79 | 1100.1 |
| 20260505225007 | 56 | 0 | 0.0 | 0.0 | 0.00 | 0.00 | 0.00 | 81 | 1011.3 |
| 20260505224615 | 56 | 221 | 5.0 | 0.0 | 0.00 | 0.00 | 0.00 | 78 | 1100.1 |
| 20260505224006 | 56 | 0 | 0.0 | 0.0 | 0.00 | 0.00 | 0.00 | 80 | 1011.2 |
| 20260505223506 | 57 | 0 | 0.0 | 0.0 | 0.00 | 0.00 | 0.00 | 80 | 1011.1 |
| 20260505223119 | 56 | 150 | 6.0 | 0.0 | 0.00 | 0.00 | 0.00 | 78 | 1100.1 |